Find Kosmos-1432

NORAD ID: 13764 Int'l Des: 1983-002 Owner: GUKOS Country: SU operational
LEOCIRCULAR

实时位置

正在加载3D地球...

关于 Kosmos-1432

正在加载描述...

即将过境

Passes for default location (London). Set your location on the main map for personalized predictions.

高度历史

Loading altitude history...

两行轨道根数

1 13764U 83002D 26106.60950516 -.00000029 00000-0 -85722-4 0 9992
2 13764 74.0248 56.6834 0003109 189.2531 344.6624 12.49887546973150
Epoch: Apr 16, 2026 • Age: 13 hours

当前状态

高度 1469.0 km
速度 7.13 km/s
星下点 12.29°N, 166.06°E
发射日期 Jan 19, 1983
运行时间 43.2 years
类型 other

技术详情

分类 Payload
质量 60.00 kg
干质量 60.00 kg
总质量 60.00 kg
长度 0.80 m
直径 0.80 m
跨度 0.80 m
形状 Poly
制造商 NPOPM
平台类型 Strela-1 11F625
阶段状态 In Orbit
所有者/国家 GUKOS/SU

Most Searched